Regional Weather Roundup
Issued by NWS

Home | Current Version | Previous Version | Graphics & Text | Print | Product List | Glossary On
Versions: 1 2 3 4 5 6 7 8 9 10 11 12 13 14 15 16 17 18 19 20 21 22 23 24 25 26 27 28 29 30 31 32 33 34 35 36 37 38 39 40 41 42 43 44 45 46 47 48 49 50
182
ASUS44 KMEG 220600
RWRTN
TENNESSEE HOURLY STATE WEATHER ROUNDUP
NATIONAL WEATHER SERVICE MEMPHIS TN
1200 AM CST SUN JAN 22 2017

TNZ002-004-019-021-049-052-054-088>092-220700-
WEST TENNESSEE

CITY           SKY/WX    TMP DP  RH WIND       PRES   REMARKS
MEMPHIS INTL   CLOUDY    62  55  77 E6        29.44F
NWS MEMPHIS      N/A     60 N/A N/A MISG        N/A
JACKSON        PTCLDY    58  53  84 CALM      29.47F
DYERSBURG      PTCLDY    57  50  77 SE7       29.46F
PARIS          CLEAR     52  48  87 CALM      29.49F
$$

TNZ008-025-027-028-033-062-065-066-220700-
NORTH MIDDLE TENNESSEE

CITY           SKY/WX    TMP DP  RH WIND       PRES   REMARKS
NASHVILLE      MOCLDY    55  50  83 SE10      29.54F
CLARKSVILLE    PTCLDY    52  47  83 E5        29.52F
SMYRNA         PTCLDY    51  49  92 S6        29.56F
CROSSVILLE     CLEAR     46  44  93 E3        29.62F
$$

TNZ061-075-076-078-094-096-097-220700-
SOUTH MIDDLE TENNESSEE

CITY           SKY/WX    TMP DP  RH WIND       PRES   REMARKS
TULLAHOMA      CLEAR     52  50  93 E3        29.57F
WINCHESTER     CLEAR     55  52  88 SE7       29.58F
COLUMBIA       CLEAR     55  55 100 SE6       29.50F
SHELBYVILLE    CLEAR     54  52  94 E7        29.56F
$$

TNZ017-018-042-046-047-220700-
NORTHEAST TENNESSEE

CITY           SKY/WX    TMP DP  RH WIND       PRES   REMARKS
TRI CITIES     CLOUDY    48  47  96 SW3       29.66R FOG
$$

TNZ012-013-036-069-073-074-220700-
CENTRAL EAST TENNESSEE

CITY           SKY/WX    TMP DP  RH WIND       PRES   REMARKS
KNOXVILLE      CLOUDY    51  50  96 E6        29.63F
OAK RIDGE      CLOUDY    51  49  92 NE3       29.64F
GATLINBURG     CLOUDY    46  46 100 E5        29.66S
$$

TNZ083-085-099-220700-
SOUTHEAST TENNESSEE

CITY           SKY/WX    TMP DP  RH WIND       PRES   REMARKS
CHATTANOOGA    MOCLDY    56  53  90 CALM      29.61F
$$

SKY/WX REPORTED AS FAIR MEANS FEW OR NO CLOUDS BELOW
12 THOUSAND FEET.





USA.gov is the U.S. government's official web portal to all federal, state and local government web resources and services.